Regional Weather Roundup
Issued by NWS

Home | Current Version | Previous Version | Graphics & Text | Print | Product List | Glossary On
Versions: 1 2 3 4 5 6 7 8 9 10 11 12 13 14 15 16 17 18 19 20 21 22 23 24 25 26 27 28 29 30 31 32 33 34 35 36 37 38 39 40 41 42 43 44 45 46 47 48 49 50
000
ASUS44 KMEG 281500
RWRTN
TENNESSEE HOURLY STATE WEATHER ROUNDUP
NATIONAL WEATHER SERVICE MEMPHIS TN
1000 AM CDT WED JUN 28 2017

TNZ002-004-019-021-049-052-054-088>092-281600-
WEST TENNESSEE

CITY           SKY/WX    TMP DP  RH WIND       PRES   REMARKS
MEMPHIS INTL   MOSUNNY   82  65  56 S9        30.08S
NWS MEMPHIS      N/A     82 N/A N/A MISG        N/A
JACKSON        SUNNY     79  64  60 S7        30.10F
$$

TNZ008-025-027-028-033-062-065-066-281600-
NORTH MIDDLE TENNESSEE

CITY           SKY/WX    TMP DP  RH WIND       PRES   REMARKS
NASHVILLE      MOSUNNY   79  57  46 SE8       30.16R
CLARKSVILLE    SUNNY     77  55  46 SE9       30.14S
SMYRNA         SUNNY     77  60  55 E3        30.17R
CROSSVILLE     SUNNY     70  53  54 VRB5      30.22S
$$

TNZ061-075-076-078-094-096-097-281600-
SOUTH MIDDLE TENNESSEE

CITY           SKY/WX    TMP DP  RH WIND       PRES   REMARKS
MCMINNVILLE    SUNNY     77  55  47 SE6       30.17S
$$

TNZ017-018-042-046-047-281600-
NORTHEAST TENNESSEE

CITY           SKY/WX    TMP DP  RH WIND       PRES   REMARKS
TRI CITIES     MOSUNNY   71  56  58 CALM      30.23F
$$

TNZ012-013-036-069-073-074-281600-
CENTRAL EAST TENNESSEE

CITY           SKY/WX    TMP DP  RH WIND       PRES   REMARKS
KNOXVILLE      MOSUNNY   73  55  53 NE3       30.18F
OAK RIDGE      SUNNY     72  55  55 VRB6      30.20F
GATLINBURG     SUNNY     72  57  60 NE5       30.19F
$$

TNZ083-085-099-281600-
SOUTHEAST TENNESSEE

CITY           SKY/WX    TMP DP  RH WIND       PRES   REMARKS
CHATTANOOGA    MOSUNNY   75  58  55 CALM      30.17F
$$

SKY/WX REPORTED AS FAIR MEANS FEW OR NO CLOUDS BELOW
12 THOUSAND FEET.




USA.gov is the U.S. government's official web portal to all federal, state and local government web resources and services.